Location: Newark
(50.4348°N, 30.5552°E)
Time: 04:41:40
(UTC+00:00)

Altair - Pass Details

Date: 23 January 2020
Orbit: 1502 x 1682 km, 47.2° (Epoch: 19 February)

Event Time Altitude Azimuth Distance (km) Brightness Sun altitude
Rises 12:50:53 0° 287° (WNW) 4,939 10.5 11.6°
Reaches altitude 10° 12:54:14 10° 281° (W) 3,942 10.1 11.2°
Maximum altitude 13:03:35 45° 214° (SW) 2,142 9.4 10.3°
Drops below altitude 10° 13:12:42 10° 146° (SE) 3,833 9.8 9.3°
Sets 13:15:55 0° 140° (SE) 4,791 10.2 8.9°
